Date String (YYYY-MM-DD hh:mm:ss) UTC,Instrument flags,absolute air pressure of the measurement (hPa),sample flow rate (lpm),inlet stack bypass flow (lpm),air temperature of the measurement (°C),ambient temperature measured by the external sensor (°C),aerosol sample conditioner tube jacket temperature (°C),OPC LED temperature (°C),internal box temperature (°C),relative humidity of the measurement (%),span deviation,mass concentration of particles derived from Lorenz-Mie calculation of OPC scattering (μg/m³),mass concentration of particles derived from Lorenz-Mie calculation of OPC scattering (μg/m³),mass concentration of particles derived from Lorenz-Mie calculation of OPC scattering (μg/m³)
DateTimeUTC,F1_M11,P_M11,Q1_M11,Q2_M11,T1_M11,T2_M11,T3_M11,T4_M11,T5_M11,U1_M11,ZSPAN_M11,X2_M11,X0_M11,X1_M11
2023-10-11 19:00:00,SystemResetWarning,0814.2,5.00,000.00,028.4,026.3,000.0,037.0,030.1,14.2,0000.0,0004.94,0017.06,0003.69
2023-10-11 19:01:00,SystemResetWarning,0814.2,5.00,000.00,028.4,026.5,000.0,037.0,030.1,14.1,0000.0,0004.96,0017.40,0003.70
2023-10-11 19:02:00,SystemResetWarning,0814.2,5.00,000.00,028.5,026.8,000.0,037.0,030.2,14.2,0000.0,0004.94,0017.04,0003.69
2023-10-11 19:03:00,SystemResetWarning,0814.2,5.00,000.00,028.5,026.9,000.0,037.0,030.3,14.3,0000.0,0004.98,0016.89,0003.68
2023-10-11 19:04:00,SystemResetWarning,0814.2,5.00,000.00,028.5,027.1,000.0,037.0,030.3,14.2,0000.0,0004.96,0016.50,0003.66
2023-10-11 19:05:00,SystemResetWarning,0814.3,5.00,000.00,028.6,027.2,000.0,037.0,030.4,14.1,0000.0,0004.95,0015.93,0003.65
2023-10-11 19:06:00,SystemResetWarning,0814.3,4.99,000.00,028.6,027.4,000.0,037.0,030.4,14.1,0000.0,0004.93,0015.74,0003.63
2023-10-11 19:07:00,SystemResetWarning,0814.3,4.99,000.00,028.6,027.5,000.0,037.1,030.5,14.1,0000.0,0004.88,0015.07,0003.63
2023-10-11 19:08:00,SystemResetWarning,0814.3,5.00,000.00,028.7,027.5,000.0,037.1,030.5,14.1,0000.0,0004.85,0014.77,0003.64
2023-10-11 19:09:00,SystemResetWarning,0814.3,5.01,000.00,028.7,027.6,000.0,037.1,030.5,14.0,0000.0,0004.82,0013.78,0003.64
2023-10-11 19:10:00,SystemResetWarning,0814.3,5.00,000.00,028.7,027.7,000.0,037.1,030.6,14.0,0000.0,0004.86,0014.06,0003.65
2023-10-11 19:11:00,SystemResetWarning,0814.3,5.00,000.00,028.8,027.8,000.0,037.2,030.6,14.0,0000.0,0004.89,0014.41,0003.65
2023-10-11 19:12:00,SystemResetWarning,0814.4,5.00,000.00,028.8,027.8,000.0,037.2,030.7,14.0,0000.0,0004.83,0013.70,0003.64
2023-10-11 19:13:00,SystemResetWarning,0814.3,4.98,000.00,028.8,026.3,000.0,037.2,030.6,13.9,0000.0,0004.80,0013.26,0003.64
2023-10-11 19:14:00,SystemResetWarning,0814.2,5.00,000.00,028.7,024.4,000.0,037.1,030.3,14.0,0000.0,0004.76,0012.69,0003.63
2023-10-11 19:15:00,SystemResetWarning,0814.1,5.01,000.00,028.6,024.0,000.0,037.0,030.1,14.0,0000.0,0004.76,0012.49,0003.63
2023-10-11 19:16:00,SystemResetWarning,0814.1,5.01,000.00,028.5,024.2,000.0,037.0,029.9,14.1,0000.0,0004.70,0012.91,0003.62
2023-10-11 19:17:00,SystemResetWarning,0814.1,4.99,000.00,028.4,024.7,000.0,037.0,029.9,14.2,0000.0,0004.70,0013.71,0003.61
2023-10-11 19:18:00,SystemResetWarning,0814.1,4.99,000.00,028.4,025.1,000.0,037.0,029.9,14.2,0000.0,0004.65,0014.21,0003.60
2023-10-11 19:19:00,SystemResetWarning,0814.1,5.00,000.00,028.4,025.5,000.0,037.0,030.0,14.2,0000.0,0004.70,0015.15,0003.58
2023-10-11 19:20:00,SystemResetWarning,0814.1,5.01,000.00,028.4,025.9,000.0,037.0,030.0,14.2,0000.0,0004.67,0015.74,0003.55
2023-10-11 19:21:00,SystemResetWarning,0814.2,5.01,000.00,028.4,026.2,000.0,037.0,030.1,14.3,0000.0,0004.60,0016.06,0003.52
2023-10-11 19:22:00,SystemResetWarning,0814.1,4.99,000.00,028.4,026.4,000.0,037.0,030.1,14.2,0000.0,0004.51,0015.79,0003.50
2023-10-11 19:23:00,SystemResetWarning,0814.1,4.99,000.00,028.4,026.7,000.0,037.0,030.2,14.1,0000.0,0004.49,0015.75,0003.48
2023-10-11 19:24:00,SystemResetWarning,0814.1,4.99,000.00,028.4,026.8,000.0,037.0,030.2,14.2,0000.0,0004.45,0015.88,0003.45
2023-10-11 19:25:00,SystemResetWarning,0814.1,5.01,000.00,028.5,027.0,000.0,037.0,030.3,14.1,0000.0,0004.46,0015.70,0003.46
2023-10-11 19:26:00,SystemResetWarning,0814.1,5.01,000.00,028.5,027.1,000.0,037.0,030.3,14.0,0000.0,0004.46,0015.56,0003.47
2023-10-11 19:27:00,SystemResetWarning,0814.1,5.00,000.00,028.5,027.2,000.0,037.0,030.3,14.1,0000.0,0004.51,0015.61,0003.48
2023-10-11 19:28:00,SystemResetWarning,0814.0,4.99,000.00,028.5,027.3,000.0,037.0,030.4,13.9,0000.0,0004.57,0015.51,0003.49
2023-10-11 19:29:00,SystemResetWarning,0814.0,4.99,000.00,028.6,027.4,000.0,037.0,030.4,13.9,0000.0,0004.64,0015.19,0003.52
2023-10-11 19:30:00,SystemResetWarning,0814.0,5.00,000.00,028.6,027.5,000.0,037.1,030.4,14.0,0000.0,0004.91,0016.45,0003.56
2023-10-11 19:31:00,SystemResetWarning,0813.9,5.00,000.00,028.7,027.5,000.0,037.1,030.5,14.2,0000.0,0005.96,0023.36,0003.68
2023-10-11 19:32:00,SystemResetWarning,0813.9,5.00,000.00,028.7,027.6,000.0,037.1,030.5,14.1,0000.0,0006.07,0022.79,0003.74
2023-10-11 19:33:00,SystemResetWarning,0813.9,5.00,000.00,028.7,027.6,000.0,037.1,030.5,13.9,0000.0,0006.15,0023.06,0003.79
2023-10-11 19:34:00,SystemResetWarning,0814.0,5.00,000.00,028.8,027.7,000.0,037.2,030.6,13.8,0000.0,0006.23,0023.20,0003.84
2023-10-11 19:35:00,SystemResetWarning,0813.9,4.99,000.00,028.8,027.0,000.0,037.2,030.6,14.1,0000.0,0006.34,0023.33,0003.89
2023-10-11 19:36:00,SystemResetWarning,0813.9,5.01,000.00,028.7,025.3,000.0,037.1,030.4,14.4,0000.0,0006.40,0023.89,0003.91
2023-10-11 19:37:00,SystemResetWarning,0813.9,5.01,000.00,028.7,024.9,000.0,037.0,030.2,14.7,0000.0,0006.46,0025.24,0003.92
2023-10-11 19:38:00,SystemResetWarning,0813.9,5.00,000.00,028.6,025.0,000.0,037.0,030.0,14.9,0000.0,0006.47,0024.89,0003.93
2023-10-11 19:39:00,SystemResetWarning,0813.9,5.00,000.00,028.5,025.3,000.0,037.0,030.0,15.0,0000.0,0006.42,0024.86,0003.92
2023-10-11 19:40:00,SystemResetWarning,0814.0,5.00,000.00,028.5,025.7,000.0,037.0,030.1,15.3,0000.0,0006.40,0025.26,0003.91
2023-10-11 19:41:00,SystemResetWarning,0813.9,5.00,000.00,028.5,026.0,000.0,037.0,030.1,16.0,0000.0,0006.28,0025.06,0003.89
2023-10-11 19:42:00,SystemResetWarning,0814.0,5.00,000.00,028.5,026.2,000.0,037.0,030.1,16.6,0000.0,0005.23,0018.07,0003.79
2023-10-11 19:43:00,SystemResetWarning,0814.0,5.00,000.00,028.5,026.5,000.0,037.0,030.2,16.8,0000.0,0005.06,0017.23,0003.75
2023-10-11 19:44:00,SystemResetWarning,0814.2,5.00,000.00,028.5,026.6,000.0,037.0,030.2,16.8,0000.0,0005.10,0018.08,0003.71
2023-10-11 19:45:00,SystemResetWarning,0814.3,5.00,000.00,028.5,026.8,000.0,037.0,030.2,16.8,0000.0,0005.14,0018.23,0003.68
2023-10-11 19:46:00,SystemResetWarning,0814.2,4.99,000.00,028.5,026.9,000.0,037.0,030.2,16.6,0000.0,0005.13,0018.51,0003.65
2023-10-11 19:47:00,SystemResetWarning,0814.2,5.00,000.00,028.5,027.0,000.0,037.0,030.3,17.2,0000.0,0005.10,0018.60,0003.64
2023-10-11 19:48:00,SystemResetWarning,0814.1,5.00,000.00,028.6,027.1,000.0,037.0,030.3,17.6,0000.0,0005.09,0018.45,0003.63
2023-10-11 19:49:00,SystemResetWarning,0814.2,5.01,000.00,028.6,027.2,000.0,037.0,030.3,17.5,0000.0,0005.12,0019.20,0003.63
2023-10-11 19:50:00,SystemResetWarning,0814.1,5.01,000.00,028.6,027.2,000.0,037.0,030.4,17.3,0000.0,0005.18,0019.30,0003.64
2023-10-11 19:51:00,SystemResetWarning,0814.1,4.99,000.00,028.6,027.3,000.0,037.1,030.4,16.7,0000.0,0005.23,0019.15,0003.65
2023-10-11 19:52:00,SystemResetWarning,0814.1,5.00,000.00,028.6,027.3,000.0,037.1,030.4,16.3,0000.0,0005.26,0019.33,0003.66
2023-10-11 19:53:00,SystemResetWarning,0813.9,5.00,000.00,028.7,027.4,000.0,037.1,030.4,16.4,0000.0,0005.33,0019.10,0003.68
2023-10-11 19:54:00,SystemResetWarning,0813.8,5.00,000.00,028.7,027.4,000.0,037.1,030.4,16.6,0000.0,0005.34,0018.86,0003.70
2023-10-11 19:55:00,SystemResetWarning,0813.8,5.01,000.00,028.7,027.5,000.0,037.1,030.5,16.1,0000.0,0005.31,0018.53,0003.72
2023-10-11 19:56:00,SystemResetWarning,0813.6,4.98,000.00,028.7,026.5,000.0,037.1,030.4,16.0,0000.0,0005.29,0019.36,0003.73
2023-10-11 19:57:00,SystemResetWarning,0813.5,5.00,000.00,028.7,024.9,000.0,037.0,030.2,15.9,0000.0,0005.28,0020.62,0003.73
2023-10-11 19:58:00,SystemResetWarning,0813.5,5.01,000.00,028.6,024.8,000.0,037.0,030.1,15.8,0000.0,0005.26,0020.42,0003.73
2023-10-11 19:59:00,SystemResetWarning,0813.5,5.00,000.00,028.5,025.0,000.0,037.0,030.0,16.0,0000.0,0005.26,0019.29,0003.71
